Home > Weather > Hard > Past weeks

Flag for Austria Weather for the Past 2 Weeks in Hard, Vorarlberg, Austria

Now
50 °F

Cool.


Feels Like: 49 °F
Forecast: 43 / 57 °F
Wind: 3 mph from South

Location: Bregenz

Current Time: May 3, 2016 at 5:21:18 AM

Latest Report: May 3, 2016 at 3:00 AM


Visibility: N/A

Pressure: 30.14 "Hg

Humidity: 77%

Dew Point: 43 °F

Location of HardLocation

Historic Weather in Hard — Graph

°F

Hard Temperature Yesterday

Maximum temperature yesterday: 54 °F (at 5:00 PM)
Minimum temperature yesterday: 44 °F (at 12:00 AM)
Average temperature yesterday: 50 °F

High & Low Weather Summary for the Past Weeks

 TemperatureHumidityPressure
High69 °F (Apr 22, 5:00 PM)98% (May 1, 11:00 PM)30.36 "Hg (May 1, 11:00 PM)
Low35 °F (Apr 25, 1:00 AM)34% (Apr 30, 6:00 PM)29.69 "Hg (Apr 23, 5:00 PM)
Average47 °F75%30.04 "Hg
* Reported Apr 18 3:00 AM — May 3 3:00 AM, Hard, Weather by CustomWeather, © 2016

Note: Actual official high and low records may vary slightly from our data, if they occured in-between our weather recording intervals... More about our weather records

Advertising

Hard Weather History for the Previous 24 Hours

Scroll right to see more
 ConditionsComfort  
Time TempWeatherWind HumidityBarometerVisibility
3:00 AM
Tue, May 3
50 °FCool.3 mph77%30.14 "HgN/A
2:00 AM49 °FCool.3 mph81%30.16 "HgN/A
1:00 AM50 °FCool.3 mph82%30.16 "HgN/A
12:00 AM50 °FCool.5 mph83%30.16 "HgN/A
11:00 PM
Mon, May 2
50 °FCool.3 mph82%30.16 "HgN/A
10:00 PM51 °FCool.5 mph85%30.15 "HgN/A
9:00 PM52 °FCool.5 mph84%30.14 "HgN/A
8:00 PM53 °FCool.3 mph81%30.13 "HgN/A
7:00 PM54 °FCool.2 mph80%30.13 "HgN/A
6:00 PM54 °FCool.2 mph80%30.14 "HgN/A
5:00 PM54 °FCool.1 mph77%30.14 "HgN/A
4:00 PM53 °FCool.No wind75%30.15 "HgN/A
3:00 PM53 °FCool.1 mph76%30.17 "HgN/A
2:00 PM52 °FOvercast.1 mph81%30.18 "Hg4 mi
1:00 PM50 °FCool.1 mph84%30.19 "HgN/A
12:00 PM48 °FCool.1 mph87%30.21 "HgN/A
11:00 AM48 °FOvercast.1 mph88%30.21 "Hg3 mi
10:00 AM47 °FCool.1 mph92%30.21 "HgN/A
9:00 AM46 °FCool.No wind93%30.22 "HgN/A
8:00 AM46 °FOvercast.2 mph95%30.22 "Hg3 mi
Weather by CustomWeather, © 2016

See weather overviewHow to use our weather pages